EW8320 Weather Reports


Display with metric or nautical units.
time (UTC)temp
F
wind
direction
speed
MPH
gust
MPH
rain 1hr
in
rain 24hr
in
rain mn
in
humidity
%
barometer
mb
20260903071917 51 356 0.0 2.0 0.02 0.02 0.01 81 1014.6
20260903070917 51 15 4.0 5.0 0.02 0.02 0.01 80 1014.4
20260903065023 52 171 1.0 3.0 0.01 0.01 0.01 79 1014.4
20260903063123 53 326 1.0 2.0 0.00 0.00 0.00 73 1014.1
20260903062125 53 12 3.0 6.0 0.00 0.00 0.00 72 1014.0
20260903061125 53 360 1.0 2.0 0.00 0.00 0.00 73 1014.0
20260903060125 53 68 1.0 3.0 0.00 0.00 0.00 73 1014.2
20260903055124 54 360 2.0 2.0 0.00 0.00 0.00 70 1014.2
20260903053322 55 360 1.0 1.0 0.00 0.00 0.00 66 1014.0
20260903052422 55 90 0.0 0.0 0.00 0.00 0.00 65 1014.0
20260903052324 55 90 0.0 1.0 0.00 0.00 0.00 65 1014.1
20260903052225 55 90 1.0 2.0 0.00 0.00 0.00 64 1014.0
20260903050323 56 123 1.0 2.0 0.00 0.00 0.00 62 1014.1
20260903045323 56 97 1.0 4.0 0.00 0.00 0.00 61 1014.1
20260903044323 56 48 4.0 5.0 0.00 0.00 0.00 59 1014.1
20260903043324 57 90 4.0 7.0 0.00 0.00 0.00 57 1014.0
20260903042324 58 105 3.0 5.0 0.00 0.00 0.00 53 1014.0
20260903041326 58 205 2.0 4.0 0.00 0.00 0.00 50 1013.9
20260903040325 59 83 1.0 2.0 0.00 0.00 0.00 47 1013.7
20260903035323 60 180 2.0 3.0 0.00 0.00 0.00 45 1013.6
20260903034325 61 241 2.0 4.0 0.00 0.00 0.00 43 1013.6
20260903032522 61 285 7.0 12.0 0.00 0.00 0.00 44 1013.4
20260903031524 61 267 6.0 11.0 0.00 0.00 0.00 44 1013.2
20260903030524 61 277 5.0 8.0 0.00 0.00 0.00 43 1013.1
20260903025523 61 296 7.0 11.0 0.00 0.00 0.00 43 1013.3
20260903024524 61 287 6.0 11.0 0.00 0.00 0.00 43 1013.2
20260903023524 61 289 7.0 11.0 0.00 0.00 0.00 43 1013.1
20260903022525 62 285 5.0 9.0 0.00 0.00 0.00 42 1013.4
20260903020623 62 310 6.0 10.0 0.00 0.00 0.00 39 1013.2
20260903014626 64 292 4.0 7.0 0.00 0.00 0.00 37 1013.3
20260903013722 64 265 7.0 13.0 0.00 0.00 0.00 37 1013.2
20260903012725 64 254 2.0 7.0 0.00 0.00 0.00 35 1013.3
20260903010823 66 266 4.0 8.0 0.00 0.00 0.00 34 1013.1
20260903004824 67 237 2.0 4.0 0.00 0.00 0.00 31 1013.0
20260903003824 68 258 4.0 8.0 0.00 0.00 0.00 31 1012.9
20260903000824 69 265 2.0 6.0 0.00 0.00 0.00 31 1012.3
20260902235922 70 256 1.0 2.0 0.00 0.00 0.00 31 1012.3
20260902233925 69 232 6.0 11.0 0.00 0.00 0.00 31 1012.4
20260902233823 69 275 2.0 5.0 0.00 0.00 0.00 31 1012.5
20260902231823 69 213 3.0 4.0 0.00 0.00 0.00 31 1012.1
20260902230922 70 242 5.0 12.0 0.00 0.00 0.00 28 1012.1
20260902225924 70 269 5.0 8.0 0.00 0.00 0.00 29 1012.1
20260902224925 71 251 5.0 8.0 0.00 0.00 0.00 27 1011.6
20260902223925 72 269 6.0 12.0 0.00 0.00 0.00 27 1011.7
20260902223023 72 218 2.0 5.0 0.00 0.00 0.00 27 1011.6
20260902221025 71 272 6.0 12.0 0.00 0.00 0.00 28 1011.8
20260902215024 70 315 0.0 1.0 0.00 0.00 0.00 35 1012.2
20260902214022 68 297 1.0 3.0 0.00 0.00 0.00 37 1012.3
20260902213023 68 341 2.0 5.0 0.00 0.00 0.00 38 1012.3
20260902212122 69 150 3.0 5.0 0.00 0.00 0.00 38 1012.5
20260902211125 69 107 0.0 2.0 0.00 0.00 0.00 37 1012.5
20260902210224 69 79 4.0 7.0 0.00 0.00 0.00 37 1012.3
20260902205224 69 83 5.0 6.0 0.00 0.00 0.00 38 1012.4
20260902204322 69 302 5.0 12.0 0.00 0.00 0.00 39 1012.6
20260902203324 68 91 4.0 6.0 0.00 0.00 0.00 38 1012.9
20260902202323 69 85 6.0 7.0 0.00 0.00 0.00 37 1012.6
20260902201323 69 51 1.0 3.0 0.00 0.00 0.00 39 1012.8
20260902195422 68 134 6.0 10.0 0.00 0.00 0.00 40 1013.0
20260902195324 68 105 2.0 5.0 0.00 0.00 0.00 40 1013.0
20260902193423 66 71 2.0 4.0 0.00 0.00 0.00 42 1013.1
20260902192522 65 346 4.0 6.0 0.00 0.00 0.00 42 1013.3
20260902185524 65 116 2.0 4.0 0.00 0.00 0.00 42 1013.6
20260902184523 66 22 3.0 4.0 0.00 0.00 0.00 42 1013.8
20260902183622 65 41 3.0 6.0 0.00 0.00 0.00 45 1013.8
20260902182623 63 146 1.0 3.0 0.00 0.00 0.00 46 1014.1
20260902180623 60 110 4.0 8.0 0.00 0.00 0.00 49 1014.4
20260902175722 61 129 5.0 10.0 0.00 0.00 0.00 51 1014.4
20260902174725 61 103 5.0 7.0 0.00 0.00 0.00 52 1014.4
20260902173723 60 53 2.0 8.0 0.00 0.00 0.00 56 1014.5
20260902172726 60 82 4.0 7.0 0.00 0.00 0.00 58 1014.6
20260902171822 58 97 2.0 6.0 0.00 0.00 0.00 60 1014.7
20260902170824 57 77 6.0 8.0 0.00 0.00 0.00 60 1014.7
20260902165922 57 96 6.0 9.0 0.00 0.00 0.00 60 1014.6
20260902164924 57 91 4.0 5.0 0.00 0.00 0.00 60 1014.6
20260902163924 57 90 3.0 5.0 0.00 0.00 0.00 62 1014.4
20260902162924 56 90 1.0 4.0 0.00 0.00 0.00 63 1014.4
20260902162023 56 108 3.0 5.0 0.00 0.00 0.00 66 1014.4
20260902161121 56 97 3.0 5.0 0.00 0.00 0.00 66 1014.3
20260902160122 54 69 3.0 4.0 0.00 0.00 0.00 70 1014.2
20260902154225 54 103 0.0 1.0 0.00 0.00 0.00 70 1014.1
20260902153323 53 334 0.0 2.0 0.00 0.00 0.00 71 1013.9
20260902152322 53 45 2.0 4.0 0.00 0.00 0.00 69 1014.0
20260902150323 53 45 2.0 3.0 0.00 0.00 0.00 69 1013.8
20260902145338 53 243 1.0 3.0 0.00 0.00 0.00 70 1014.0
20260902144324 53 225 4.0 8.0 0.00 0.00 0.00 71 1014.2
20260902143423 52 266 3.0 8.0 0.00 0.00 0.00 71 1014.0
20260902141523 53 190 6.0 10.0 0.00 0.00 0.00 68 1013.7
20260902141425 53 195 8.0 11.0 0.00 0.00 0.00 67 1013.9
20260902140424 52 254 3.0 7.0 0.00 0.00 0.00 70 1014.6
20260902135424 51 292 4.0 5.0 0.00 0.00 0.00 90 1013.8
20260902134424 52 108 6.0 10.0 0.00 0.00 0.00 100 1014.7
20260902132523 51 336 5.0 7.0 0.00 0.00 0.00 99 1015.0
20260902131541 51 67 0.0 1.0 0.00 0.00 0.00 99 1014.8
20260902125622 51 337 3.0 4.0 0.00 0.00 0.00 100 1014.4
20260902124624 52 277 1.0 3.0 0.00 0.00 0.00 98 1014.3
20260902123622 51 294 0.0 2.0 0.00 0.00 0.00 99 1014.3
20260902122625 50 274 2.0 3.0 0.00 0.00 0.00 99 1014.4
20260902120725 47 270 0.0 0.0 0.00 0.00 0.00 100 1014.1
20260902120623 47 270 0.0 0.0 0.00 0.00 0.00 100 1014.1
20260902114722 48 112 0.0 0.0 0.00 0.00 0.00 100 1013.9
20260902113724 47 270 0.0 0.0 0.00 0.00 0.00 100 1013.9
20260902111724 47 202 2.0 3.0 0.00 0.00 0.00 100 1013.7
20260902105824 48 217 2.0 4.0 0.00 0.00 0.00 99 1013.7
20260902104822 48 235 1.0 3.0 0.00 0.00 0.00 99 1013.9
20260902102825 45 229 1.0 3.0 0.00 0.00 0.00 98 1013.4
20260902100941 45 225 0.0 1.0 0.00 0.00 0.00 99 1013.2
20260902095923 45 202 1.0 2.0 0.00 0.00 0.00 92 1013.1
20260902094023 45 222 0.0 0.0 0.00 0.00 0.00 92 1013.2
20260902093024 44 225 0.0 0.0 0.00 0.00 0.00 79 1013.4
20260902091122 38 204 0.0 1.0 0.00 0.00 0.00 75 1013.3
20260902090124 42 202 0.0 0.0 0.00 0.00 0.00 74 1013.4
20260902085123 46 202 0.0 0.0 0.00 0.00 0.00 77 1013.4
20260902084126 47 202 0.0 0.0 0.00 0.00 0.00 77 1013.4
20260902083124 47 225 2.0 2.0 0.00 0.00 0.00 81 1013.1
20260902081124 48 247 0.0 0.0 0.00 0.00 0.00 70 1013.2
20260902080122 48 212 1.0 2.0 0.00 0.00 0.00 70 1013.0
20260902075124 48 253 0.0 1.0 0.00 0.00 0.00 68 1013.0
20260902074124 41 247 0.0 0.0 0.00 0.00 0.00 69 1013.1
20260902073122 45 224 2.0 4.0 0.00 0.00 0.00 66 1013.1